Weather History for Pian Rosa, Italy

Change the Weather History Date:

Tuesday, September 4, 2012

  Actual Average Record
Temperature  
Mean Temperature 30 °F -  
Max Temperature 32 °F 34 °F 47 °F (2013)
Min Temperature 29 °F 25 °F 15 °F (2007)
Degree Days  
Heating Degree Days 34    
Moisture  
Dew Point 25 °F    
Average Humidity 77    
Maximum Humidity 86    
Minimum Humidity 63    
Precipitation  
Precipitation 0.00 in - - ()
Sea Level Pressure  
Sea Level Pressure 30.39 in    
Wind  
Wind Speed 7 mph ()    
Max Wind Speed 14 mph    
Max Gust Speed -    
Visibility 2.8 miles    
Events Fog    
Averages and records for this station are not official NWS values.
T = Trace of Precipitation, MM = Missing Value Source: Averaged Metar Reports

Daily Weather History Graph

Daily Weather History Graph

Search for Another Location

Airport:

Trip Planner

Search our weather history database for the weather conditions in past years. The results will help you decide how hot, cold, wet, or windy it might be!

Date:

Astronomy

Sep. 04, 2012 Rise Set
Actual Time 6:54 AM CEST 8:01 PM CEST
Civil Twilight 6:23 AM CEST 8:31 PM CEST
Nautical Twilight 5:46 AM CEST 9:08 PM CEST
Astronomical Twilight 5:07 AM CEST 9:47 PM CEST
Moon 9:27 PM CEST (9/4) 11:01 AM CEST (9/4)
Length of Visible Light 14h 08m
Length of Day
13h 07m
Waning Gibbous, 85% of the Moon is Illuminated
Sep 4
Waning Gibbous
Sep 8
Last Quarter
Sep 16
New
Sep 22
First Quarter
Sep 30
Full

Hourly Weather History & Observations

Time (CEST) Temp. Windchill Dew Point Humidity Pressure Visibility Wind Dir Wind Speed Gust Speed Precip Events Conditions
12:55 AM 30.2 °F 25.4 °F 26.6 °F 86% 30.39 in 0.5 mi ENE 4.6 mph - N/A Fog Light Freezing Fog
1:55 AM 30.2 °F 25.4 °F 26.6 °F 86% 30.39 in 0.5 mi ENE 4.6 mph - N/A Fog Light Freezing Fog
2:00 AM 31 °F - 26 °F 76%  in 0 mi ENE 4.6 mph - - Fog Heavy Fog
2:55 AM 32.0 °F 26.4 °F 26.6 °F 80% 30.39 in 0.5 mi NE 5.8 mph - N/A Fog Light Freezing Fog
3:55 AM 32.0 °F 23.0 °F 26.6 °F 80% 30.39 in 0.5 mi ENE 11.5 mph - N/A Fog Light Freezing Fog
4:55 AM 32.0 °F 25.6 °F 26.6 °F 80% 30.39 in 0.5 mi ENE 6.9 mph - N/A Fog Light Freezing Fog
5:00 AM 31 °F - 26 °F 76%  in 0 mi ENE 6.9 mph - - Fog Heavy Fog
5:55 AM 30.2 °F 21.9 °F 26.6 °F 86% 30.39 in 0.5 mi NE 9.2 mph - N/A Fog Light Freezing Fog
6:55 AM 30.2 °F 19.8 °F 24.8 °F 80% 30.36 in 0.2 mi NE 13.8 mph - N/A Fog Light Freezing Fog
7:55 AM 30.2 °F 25.4 °F 24.8 °F 80% 30.36 in 1.9 mi ENE 4.6 mph - N/A   Scattered Clouds
8:00 AM 30 °F - 25 °F 75%  in 2 mi ENE 4.6 mph - - Fog Light Fog
8:55 AM 30.2 °F 21.3 °F 26.6 °F 86% 30.36 in 3.7 mi NE 10.4 mph - N/A   Scattered Clouds
9:55 AM 32.0 °F 25.6 °F 26.6 °F 80% 30.39 in 3.7 mi NE 6.9 mph - N/A   Scattered Clouds
10:55 AM 32.0 °F 22.1 °F 26.6 °F 80% 30.39 in 3.7 mi NE 13.8 mph - N/A   Scattered Clouds
11:00 AM 32 °F - 27 °F 74%  in 4 mi NE 13.8 mph - -   Mist
11:55 AM 32.0 °F 25.6 °F 26.6 °F 80% 30.39 in 4.3 mi NE 6.9 mph - N/A   Scattered Clouds
12:55 PM 32.0 °F 26.4 °F 26.6 °F 80% 30.42 in 0.3 mi NE 5.8 mph - N/A Fog Light Freezing Fog
1:55 PM 32.0 °F 28.7 °F 26.6 °F 80% 30.39 in 0.3 mi NE 3.5 mph - N/A Fog Light Freezing Fog
2:00 PM 32 °F - 27 °F 75%  in 0 mi NE 3.5 mph - - Fog Heavy Fog
2:55 PM 32.0 °F 26.4 °F 26.6 °F 80% 30.39 in 0.5 mi NE 5.8 mph - N/A Fog Fog
3:55 PM 32.0 °F 23.0 °F 26.6 °F 80% 30.39 in 0.5 mi NE 11.5 mph - N/A Fog Fog
4:55 PM 32.0 °F 22.1 °F 26.6 °F 80% 30.39 in 0.5 mi NNE 13.8 mph - N/A Fog Fog
5:55 PM 32.0 °F 22.1 °F 24.8 °F 75% 30.39 in 0.5 mi NE 13.8 mph - N/A Fog Light Freezing Fog
6:55 PM 30.2 °F 21.3 °F 24.8 °F 80% 30.39 in 1.6 mi NNE 10.4 mph - N/A   Mostly Cloudy
7:55 PM 30.2 °F 23.4 °F 23.0 °F 75% 30.39 in 6.2 mi NE 6.9 mph - N/A   Scattered Clouds
8:00 PM 30 °F - 22 °F 63%  in 19 mi NE 6.9 mph - -   Partly Cloudy
8:55 PM 30.2 °F 21.9 °F 21.2 °F 69% 30.42 in 6.2 mi ENE 9.2 mph - N/A   Scattered Clouds
9:55 PM 30.2 °F 26.7 °F 23.0 °F 75% 30.42 in 6.2 mi NE 3.5 mph - N/A   Partly Cloudy
10:55 PM 30.2 °F 21.9 °F 21.2 °F 69% 30.42 in 6.2 mi ENE 9.2 mph - N/A   Partly Cloudy
11:00 PM 29 °F - 22 °F 65%  in 6 mi ENE 9.2 mph - -   Scattered Clouds
11:55 PM 30.2 °F 24.3 °F 21.2 °F 69% 30.42 in 6.2 mi ENE 5.8 mph - N/A   Partly Cloudy